This is the latest recevied weather packets stored in our database for station/object JF7BTK-10. If no packets are shown the sender has not sent any weather packets the latest 10 day(s).
| Time | Temp. | Humidity | Pressure | Rain* | Wind** | Luminosity | Snow |
|---|---|---|---|---|---|---|---|
| 1777932100 | 11.11° C | 71% | 1009.2 hPa | 0 mm | - | - | - |
| 1777931199 | 10.56° C | 72% | 1009.2 hPa | 0 mm | - | - | - |
| 1777930299 | 10° C | 73% | 1009.1 hPa | 0 mm | - | - | - |
| 1777929400 | 10° C | 74% | 1008.8 hPa | 0 mm | - | - | - |
| 1777928499 | 8.33° C | 75% | 1008.5 hPa | 0 mm | - | - | - |
| 1777927600 | 7.78° C | 75% | 1008.3 hPa | 0 mm | - | - | - |
| 1777926700 | 7.78° C | 74% | 1008.2 hPa | 0 mm | - | - | - |
| 1777925800 | 7.78° C | 74% | 1008.2 hPa | 0 mm | - | - | - |
| 1777924899 | 7.78° C | 74% | 1007.7 hPa | 0 mm | - | - | - |
| 1777923999 | 7.78° C | 74% | 1007.5 hPa | 0 mm | - | - | - |
| 1777923100 | 7.78° C | 74% | 1007.4 hPa | 0 mm | - | - | - |
| 1777922200 | 7.78° C | 74% | 1007 hPa | 0 mm | - | - | - |
| 1777921300 | 7.78° C | 74% | 1006.5 hPa | 0 mm | - | - | - |
| 1777920400 | 8.33° C | 73% | 1006.3 hPa | 0 mm | - | - | - |
| 1777919499 | 8.33° C | 72% | 1006 hPa | 0.25 mm | - | - | - |
| 1777918879 | 7.78° C | 70% | 1005.7 hPa | 0.25 mm | - | - | - |
| 1777918599 | 7.78° C | 70% | 1005.5 hPa | 0.25 mm | - | - | - |
| 1777917979 | 8.33° C | 68% | 1005.3 hPa | 0.51 mm | - | - | - |
| 1777917700 | 8.33° C | 68% | 1005.1 hPa | 0.51 mm | - | - | - |
| 1777917080 | 8.33° C | 69% | 1004.7 hPa | 0.51 mm | - | - | - |
| 1777916800 | 8.33° C | 69% | 1004.6 hPa | 0.51 mm | - | - | - |
| 1777915900 | 8.33° C | 70% | 1003.9 hPa | 0.25 mm | - | - | - |
| 1777915580 | 8.33° C | 71% | 1003.7 hPa | 0.25 mm | - | - | - |
| 1777915000 | 8.33° C | 70% | 1003.5 hPa | 0.51 mm | - | - | - |
| 1777914680 | 8.33° C | 70% | 1003.5 hPa | 0.51 mm | - | - | - |
* Rain latest hour (hover to see other rain measurements)
** Current wind speed in m/s (hover to see current wind gust speed)